Location: Allens Landing
(37.8284°N, 89.7284°W)
Time: 11:50:23
(UTC+00:00)

A-11 Canister half - All Passes

Search period start: 15 November 2025 00:00
Search period end: 25 November 2025 00:00
Orbit: 1511 x 1688 km, 47.2° (Epoch: 14 November)

Date Brightness Start Highest point End Pass type
(mag) Time Alt. Az. Time Alt. Az. Time Alt. Az.
15 Nov - 03:07:33 10° SSW 03:16:34 43° SE 03:25:52 10° ENE visible
15 Nov - 05:11:15 10° WSW 05:21:13 76° NNW 05:31:27 10° ENE night (unlit)
15 Nov - 07:17:45 10° WNW 07:27:31 50° N 07:37:23 10° ENE visible
15 Nov - 09:23:57 10° WNW 09:34:06 64° NNE 09:44:09 10° ESE visible
15 Nov - 11:29:22 10° WNW 11:39:17 59° SW 11:49:00 10° SE visible
15 Nov - 13:37:40 10° W 13:42:43 15° WSW 13:47:43 10° SSW daylight
16 Nov - 02:44:44 10° SSW 02:53:34 41° SE 03:02:41 10° ENE visible
16 Nov - 04:48:10 10° WSW 04:58:06 79° NNW 05:08:21 10° ENE night (unlit)
16 Nov - 06:54:35 10° W 07:04:21 50° N 07:14:13 10° ENE visible
16 Nov - 09:00:51 10° WNW 09:10:58 62° NNE 09:21:00 10° E visible
16 Nov - 11:06:15 10° WNW 11:16:15 63° SW 11:26:04 10° SE visible
16 Nov - 13:14:04 10° W 13:19:46 17° WSW 13:25:26 10° SSW daylight
17 Nov - 02:21:56 10° SSW 02:30:35 38° SE 02:39:30 10° ENE visible
17 Nov - 04:25:05 10° WSW 04:35:00 82° NNW 04:45:15 10° ENE night (unlit)
17 Nov - 06:31:26 10° W 06:41:10 51° N 06:51:04 10° ENE visible
17 Nov - 08:37:44 10° WNW 08:47:49 61° NNE 08:57:51 10° E visible
17 Nov - 10:43:07 10° WNW 10:53:12 67° SW 11:03:05 10° SE visible
17 Nov - 12:50:33 10° W 12:56:49 19° WSW 13:03:02 10° SSW daylight
18 Nov - 01:59:09 10° SSW 02:07:36 35° SE 02:16:18 10° ENE visible
18 Nov - 04:02:02 10° WSW 04:11:55 85° NNW 04:22:09 10° ENE visible
18 Nov - 06:08:16 10° W 06:18:00 51° N 06:27:53 10° ENE visible
18 Nov - 08:14:38 10° WNW 08:24:40 59° NNE 08:34:41 10° E visible
18 Nov - 10:20:01 10° WNW 10:30:09 70° SW 10:40:07 10° SE visible
18 Nov - 12:27:07 10° W 12:33:52 20° SW 12:40:33 10° SSW daylight
19 Nov - 01:36:24 10° S 01:44:38 33° SE 01:53:05 10° ENE visible
19 Nov - 03:38:59 10° WSW 03:48:50 88° NNW 03:59:02 10° ENE visible
19 Nov - 05:45:07 10° W 05:54:49 52° N 06:04:44 10° ENE night (unlit)
19 Nov - 07:51:32 10° WNW 08:01:31 57° NNE 08:11:31 10° E visible
19 Nov - 09:56:55 10° WNW 10:07:05 74° SW 10:17:07 10° SE visible
19 Nov - 12:03:43 10° W 12:10:54 22° SW 12:18:00 10° S visible
20 Nov - 01:13:41 10° S 01:21:39 30° SE 01:29:50 10° ENE visible
20 Nov - 03:15:57 10° SW 03:25:45 88° SE 03:35:57 10° ENE visible
20 Nov - 05:21:57 10° W 05:31:39 53° N 05:41:35 10° ENE night (unlit)
20 Nov - 07:28:25 10° WNW 07:38:21 56° NNE 07:48:20 10° E visible
20 Nov - 09:33:49 10° WNW 09:44:01 77° SW 09:54:06 10° SE visible
20 Nov - 11:40:23 10° WNW 11:47:56 24° SW 11:55:25 10° S visible
21 Nov - 00:51:00 10° S 00:58:41 28° SE 01:06:35 10° ENE visible
21 Nov - 02:52:55 10° SW 03:02:41 85° SE 03:12:50 10° ENE visible
21 Nov - 04:58:48 10° W 05:08:30 54° NNW 05:18:26 10° ENE night (unlit)
21 Nov - 07:05:17 10° WNW 07:15:11 55° NNE 07:25:10 10° E visible
21 Nov - 09:10:44 10° WNW 09:20:57 81° SW 09:31:05 10° SE visible
21 Nov - 11:17:05 10° WNW 11:24:58 26° SW 11:32:45 10° S visible
22 Nov - 00:28:21 10° S 00:35:44 26° SE 00:43:18 10° ENE visible
22 Nov - 02:29:55 10° SW 02:39:38 81° SE 02:49:43 10° ENE visible
22 Nov - 04:35:40 10° W 04:45:20 55° NNW 04:55:17 10° ENE visible
22 Nov - 06:42:10 10° WNW 06:52:01 54° NNE 07:01:58 10° E visible
22 Nov - 08:47:38 10° WNW 08:57:52 85° SW 09:08:02 10° SE visible
22 Nov - 10:53:48 10° WNW 11:01:59 29° SW 11:10:05 10° S visible
23 Nov - 00:05:45 10° S 00:12:47 24° SE 00:19:59 10° ENE visible
23 Nov - 02:06:55 10° SW 02:16:34 78° SE 02:26:37 10° ENE visible
23 Nov - 04:12:31 10° W 04:22:11 56° NNW 04:32:09 10° ENE visible
23 Nov - 06:19:03 10° WNW 06:28:51 53° N 06:38:47 10° E visible
23 Nov - 08:24:33 10° WNW 08:34:47 88° SSW 08:44:59 10° SE visible
23 Nov - 10:30:34 10° WNW 10:38:59 31° SW 10:47:22 10° S visible
23 Nov - 23:43:11 10° S 23:49:50 22° SE 23:56:38 10° E visible
24 Nov - 01:43:56 10° SW 01:53:31 74° SE 02:03:30 10° ENE visible
24 Nov - 03:49:23 10° W 03:59:02 57° NNW 04:09:00 10° ENE visible
24 Nov - 05:55:56 10° WNW 06:05:42 52° N 06:15:36 10° E night (unlit)
24 Nov - 08:01:29 10° WNW 08:11:42 88° NNE 08:21:55 10° ESE visible
24 Nov - 10:07:20 10° WNW 10:16:00 33° SW 10:24:37 10° S visible
24 Nov - 23:20:41 10° SSE 23:26:53 20° SE 23:33:14 10° E visible
